Location: Burgberg
(50.1428°N, 11.0671°E)
Time: 02:20:35
(UTC+00:00)

BREEZE-M DEB (TANK) - Pass Details

Date: 26 January 2020
Orbit: 322 x 11938 km, 49.7° (Epoch: 22 February)

Event Time Altitude Azimuth Distance (km) Brightness Sun altitude
Exits shadow 04:32:51 61° 207° (SSW) 711 3.7 -23.1°
Maximum altitude 04:33:00 62° 194° (SSW) 723 3.8 -23.1°
Drops below altitude 10° 04:40:17 10° 116° (ESE) 3,744 8.6 -21.9°
Sets 04:45:54 0° 114° (ESE) 6,148 10.0 -21.0°
